Location: Unspecified
(0.0000°N, 0.0000°E)
Time: 23:38:00
(UTC+00:00)

Hubble Space Telescope - Pass Details

Date: 17 July 2019
Orbit: 536 x 540 km, 28.5° (Epoch: 22 July)

Event Time Altitude Azimuth Distance (km) Brightness Sun altitude
Rises 19:08:46 0° 270° (W) 2,673 5.7 -14.6°
Reaches altitude 10° 19:11:42 10° 248° (WSW) 1,784 4.1 -15.2°
Maximum altitude 19:14:21 16° 208° (SSW) 1,424 3.0 -15.9°
Enters shadow 19:16:36 11° 173° (S) 1,694 3.0 -16.4°
